[[{"header":{"parameterUnit":"m.s-1","parameterCategory":1,"la1":30.2991,"la2":30.254,"lo1":-89.0895,"lo2":-89.0444,"dy":0.0017,"dx":0.0017,"nx":28,"ny":28,"refTime":"2024-12-06T09:00:00:Z","depth":0,"parameterNumber":2,"parameterNumberName":"U-component_of_WINDS"},"data":[0,0,0,0,0,0,0,0,0,0,0,0,0,0,0,0,0,0,0,0,0,0,0,0,0,0,0,0,0,0,0,0,0,0,0,0,0,0,0,0,0,0,0,0,0,0,0,0,0,0,0,0,0,0,0,0,0,0,0.1465,0.1464,0,0.1428,0.1427,0.1427,0.143,0.1431,0.1431,0.1432,0.139,0.1388,0.1387,0,0,0,0,0,0,0,0,0,0,0,0,0,0.1537,0.1535,0.1465,0.1464,0.1464,0.1428,0.1427,0.1427,0.143,0.1431,0.1431,0.1432,0.139,0.1388,0.1386,0,0,0,0,0,0,0,0,0,0,0,0,0,0.1503,0.1535,0.1465,0.1461,0.1461,0.1428,0.1427,0.1426,0.143,0.1431,0.1431,0.1432,0.1391,0.1389,0.1386,0.1353,0,0,0.1379,0.1377,0,0,0,0,0,0,0,0,0.1505,0.15,0.1462,0.1462,0.1461,0.1434,0.1437,0.1402,0.1429,0.1441,0.1432,0.1433,0.1404,0.14,0.1391,0.1351,0.135,0.1378,0.1377,0.1376,0.1375,0,0,0,0,0,0,0,0.1507,0.1502,0.145,0.1462,0.1461,0.1461,0.1457,0.143,0.1418,0.144,0.1441,0.1436,0.1403,0.1394,0.139,0.1349,0.1378,0.1376,0.1375,0.1374,0.1281,0.128,0,0,0,0,0,0,0.1511,0.1504,0.1451,0.1449,0.1486,0.1459,0.1455,0.1442,0.1418,0.1416,0.1436,0.1437,0.1397,0.1393,0.1389,0.1349,0.1376,0.1373,0.1372,0.1282,0.1281,0.128,0,0,0,0,0,0,0.1512,0.1506,0.1453,0.1476,0.147,0.1457,0.1442,0.1441,0.1431,0.1415,0.1412,0.1428,0.1398,0.1392,0.1363,0.1347,0.1372,0.137,0.1283,0.1282,0.128,0.1269,0,0,0,0,0,0,0.1514,0.1507,0.1494,0.1476,0.1468,0.1428,0.1442,0.1439,0.1427,0.1428,0.1407,0.1404,0.1398,0.1366,0.136,0.1344,0.1368,0.1284,0.1283,0.1281,0.127,0.1267,0.1264,0,0,0,0,0,0.1517,0.1492,0.1494,0.1487,0.1453,0.1427,0.1422,0.1417,0.1426,0.1413,0.1403,0.1405,0.1351,0.1363,0.1356,0.134,0.1285,0.1283,0.1281,0.1272,0.1268,0.1264,0,0,0,0,0,0,0.1507,0.1489,0.1491,0.146,0.1445,0.1427,0.1411,0.1413,0.1394,0.1395,0.1389,0.1384,0.1354,0.1344,0.1358,0.1307,0.1319,0.1315,0.1314,0.131,0.1307,0.131,0.1366,0,0,0,0,0,0.1501,0.1482,0.1468,0.1441,0.1434,0.1424,0.1412,0.141,0.1393,0.1387,0.1374,0.1358,0.1337,0.1323,0.1303,0.127,0.1265,0.1255,0.1252,0.1249,0.1246,0.1227,0.1223,0.1273,0.1273,0.1273,0,0,0.1488,0.1477,0.1465,0.1439,0.1427,0.1407,0.1418,0.1396,0.1381,0.1383,0.1354,0.1345,0.1326,0.1294,0.128,0.1285,0.1231,0.1247,0.1245,0.1242,0.1225,0.122,0.1216,0.1271,0.1271,0.1272,0,0,0.1455,0.1445,0.1421,0.141,0.1393,0.1387,0.1382,0.1364,0.1358,0.133,0.1332,0.1313,0.1278,0.1264,0.1253,0.1217,0.1218,0.1211,0.1194,0.1176,0.1172,0.1168,0.1155,0.115,0.1207,0.1207,0.1207,0,0.1441,0.1412,0.1409,0.1387,0.1375,0.1379,0.1355,0.1344,0.132,0.1312,0.1319,0.1275,0.1263,0.1228,0.1219,0.121,0.1203,0.1212,0.1173,0.1169,0.1166,0.1153,0.1148,0.1207,0.1207,0.1207,0.1207,0,0.1395,0.1375,0.1358,0.1337,0.1324,0.1301,0.1294,0.1281,0.1281,0.1274,0.1245,0.1231,0.1208,0.12,0.1198,0.1165,0.1169,0.1175,0.1186,0.116,0.1148,0.1143,0.1205,0.1206,0.1206,0.1206,0,0,0.1352,0.1332,0.1325,0.1316,0.1299,0.1282,0.126,0.1239,0.1228,0.1212,0.1193,0.1164,0.117,0.1157,0.1154,0.1138,0.111,0.1146,0.1145,0.1139,0.1073,0.1067,0.1062,0.1112,0.1111,0.111,0.1074,0,0.1316,0.1277,0.1275,0.124,0.1221,0.1225,0.1205,0.1192,0.1185,0.1168,0.116,0.114,0.1149,0.1141,0.1126,0.1117,0.1097,0.112,0.1092,0.1092,0.1096,0.1055,0.105,0.1016,0.1069,0.1068,0.1068,0,0.1268,0.1253,0.1216,0.1202,0.1194,0.1177,0.1158,0.1142,0.1127,0.1123,0.111,0.111,0.1087,0.1101,0.1068,0.1084,0.1073,0.1067,0.1066,0.1061,0.1077,0.1049,0.1005,0.1,0.106,0.1061,0.1061,0,0.1239,0.121,0.1184,0.1176,0.1159,0.1147,0.1139,0.1126,0.1114,0.1098,0.109,0.1071,0.106,0.1045,0.1039,0.105,0.1007,0.102,0.1002,0.1002,0.0991,0.0992,0.0944,0.0987,0.0987,0.0987,0.0987,0,0.1199,0.1176,0.1171,0.1155,0.1129,0.1127,0.1102,0.1095,0.1083,0.1065,0.1068,0.105,0.1045,0.1027,0.1023,0.0996,0.0992,0.0987,0.0986,0.0986,0.0987,0.0978,0.0979,0.0985,0.0986,0.0986,0.0986,0,0.1161,0.1157,0.1129,0.1117,0.1113,0.1095,0.1083,0.1068,0.1063,0.104,0.1035,0.1026,0.1005,0.0999,0.0974,0.0971,0.094,0.0941,0.0945,0.0944,0.0926,0.0927,0.0869,0.0861,0.0911,0.091,0.091,0,0.1134,0.1117,0.1103,0.1092,0.1085,0.1067,0.1055,0.1053,0.1041,0.1024,0.101,0.099,0.0974,0.094,0.0931,0.0912,0.0912,0.0893,0.0909,0.091,0.0911,0.0911,0.0909,0.089,0.0889,0.0889,0.0888,0,0.1088,0.1087,0.1071,0.1054,0.1041,0.1028,0.1015,0.1005,0.1001,0.0988,0.0967,0.0955,0.093,0.091,0.0891,0.0882,0.0884,0.0884,0.0878,0.0877,0.088,0.0877,0.0935,0.0885,0.0885,0.0885,0.0885,0.0886,0.1054,0.1039,0.1027,0.1009,0.1,0.0988,0.0973,0.0967,0.0951,0.0931,0.0931,0.0909,0.0895,0.087,0.0861,0.0843,0.0848,0.084,0.0838,0.0836,0.0834,0.0885,0.0839,0.084,0.084,0.084,0.084,0,0.1006,0.0999,0.0983,0.0966,0.0952,0.0958,0.0944,0.0932,0.0913,0.0901,0.0885,0.0862,0.0843,0.0834,0.0815,0.0802,0.0803,0.0797,0.0797,0.0795,0.0831,0.0837,0.0797,0.0797,0.0797,0.0797,0.0797,0.0797,0.0979,0.0954,0.0953,0.0923,0.0917,0.0896,0.0887,0.0877,0.0867,0.0842,0.0826,0.0821,0.081,0.0791,0.0773,0.0771,0.0763,0.0757,0.0755,0.0788,0.0792,0.0796,0.0802,0.0756,0.0755,0.072,0.072,0.072]},{"header":{"parameterUnit":"m.s-1","parameterCategory":1,"la1":30.2991,"la2":30.254,"lo1":-89.0895,"lo2":-89.0444,"dy":0.0017,"dx":0.0017,"nx":28,"ny":28,"refTime":"2024-12-06T09:00:00:Z","depth":0,"parameterNumber":3,"parameterNumberName":"V-component_of_WINDS"},"data":[0,0,0,0,0,0,0,0,0,0,0,0,0,0,0,0,0,0,0,0,0,0,0,0,0,0,0,0,0,0,0,0,0,0,0,0,0,0,0,0,0,0,0,0,0,0,0,0,0,0,0,0,0,0,0,0,0,0,-6.2394,-6.2394,0,-6.2395,-6.2395,-6.2395,-6.229,-6.2287,-6.2285,-6.2282,-6.2282,-6.2285,-6.2287,0,0,0,0,0,0,0,0,0,0,0,0,0,-6.2299,-6.2301,-6.2394,-6.2394,-6.2394,-6.2395,-6.2395,-6.2395,-6.2291,-6.2287,-6.2284,-6.2281,-6.2281,-6.2284,-6.2287,0,0,0,0,0,0,0,0,0,0,0,0,0,-6.2324,-6.2302,-6.2394,-6.2342,-6.2337,-6.2395,-6.2395,-6.2395,-6.2291,-6.2287,-6.2283,-6.2279,-6.228,-6.2284,-6.2288,-6.2395,0,0,-6.23,-6.2301,0,0,0,0,0,0,0,0,-6.2323,-6.2328,-6.2349,-6.2346,-6.234,-6.2338,-6.2362,-6.2395,-6.2292,-6.2309,-6.2282,-6.2277,-6.2304,-6.2306,-6.2315,-6.2395,-6.2395,-6.23,-6.2302,-6.2304,-6.2305,0,0,0,0,0,0,0,-6.2321,-6.2327,-6.2394,-6.235,-6.2344,-6.2318,-6.2317,-6.2368,-6.233,-6.2307,-6.2299,-6.2301,-6.2301,-6.2312,-6.2314,-6.2395,-6.23,-6.2303,-6.2306,-6.2307,-6.2564,-6.2568,0,0,0,0,0,0,-6.2327,-6.2326,-6.2394,-6.2394,-6.2321,-6.2323,-6.2322,-6.2343,-6.2329,-6.2323,-6.2305,-6.2296,-6.2307,-6.231,-6.2314,-6.2439,-6.2304,-6.2308,-6.231,-6.2559,-6.2565,-6.2569,0,0,0,0,0,0,-6.2325,-6.2334,-6.2394,-6.2358,-6.2364,-6.2329,-6.2354,-6.2345,-6.2356,-6.2327,-6.232,-6.2323,-6.2304,-6.2309,-6.2376,-6.2437,-6.231,-6.2313,-6.2554,-6.2561,-6.2567,-6.2689,0,0,0,0,0,0,-6.2323,-6.2334,-6.2375,-6.236,-6.2366,-6.2457,-6.2358,-6.2348,-6.2363,-6.2352,-6.2342,-6.2337,-6.2301,-6.2371,-6.238,-6.244,-6.2316,-6.2548,-6.2557,-6.2565,-6.268,-6.2699,-6.2716,0,0,0,0,0,-6.232,-6.2409,-6.2377,-6.2386,-6.2417,-6.2461,-6.2464,-6.2422,-6.2369,-6.2409,-6.2391,-6.2337,-6.2429,-6.2379,-6.2388,-6.245,-6.2544,-6.2555,-6.2564,-6.2671,-6.2695,-6.2716,0,0,0,0,0,0,-6.2431,-6.2406,-6.2371,-6.2458,-6.2462,-6.2443,-6.2492,-6.2449,-6.2468,-6.2457,-6.2403,-6.2402,-6.2478,-6.2471,-6.2415,-6.2554,-6.2477,-6.249,-6.2555,-6.2578,-6.2596,-6.2596,-6.2319,0,0,0,0,0,-6.2465,-6.2504,-6.248,-6.2559,-6.2563,-6.2528,-6.2545,-6.2513,-6.2515,-6.2516,-6.2502,-6.2506,-6.2536,-6.2557,-6.2582,-6.2678,-6.2674,-6.2726,-6.2744,-6.2759,-6.2771,-6.2821,-6.2843,-6.2603,-6.2602,-6.2602,0,0,-6.2537,-6.2528,-6.2556,-6.2581,-6.258,-6.2621,-6.253,-6.2576,-6.2606,-6.2523,-6.2586,-6.2576,-6.2577,-6.2659,-6.2695,-6.2656,-6.2836,-6.2772,-6.2785,-6.2787,-6.2833,-6.2856,-6.2877,-6.2609,-6.2608,-6.2607,0,0,-6.2689,-6.2686,-6.2751,-6.2753,-6.2754,-6.273,-6.2746,-6.2734,-6.2724,-6.2787,-6.2726,-6.2759,-6.2812,-6.2815,-6.2824,-6.2977,-6.2928,-6.2987,-6.3083,-6.3132,-6.3151,-6.3168,-6.3222,-6.3242,-6.2999,-6.2999,-6.2999,0,-6.2777,-6.2836,-6.2791,-6.2842,-6.2854,-6.2782,-6.2847,-6.2851,-6.2861,-6.2871,-6.2827,-6.2892,-6.2887,-6.2969,-6.3007,-6.3016,-6.3032,-6.2988,-6.3152,-6.3168,-6.3183,-6.3234,-6.3255,-6.3006,-6.3005,-6.3004,-6.3004,0,-6.2946,-6.2988,-6.304,-6.3052,-6.307,-6.3129,-6.3091,-6.3116,-6.3081,-6.3062,-6.3127,-6.3119,-6.3142,-6.3159,-6.3126,-6.3237,-6.3212,-6.3162,-6.3083,-6.3214,-6.3261,-6.3281,-6.3016,-6.3014,-6.3011,-6.301,0,0,-6.3166,-6.3152,-6.3172,-6.3177,-6.3173,-6.3204,-6.3259,-6.3282,-6.3304,-6.3313,-6.3357,-6.3404,-6.3357,-6.3367,-6.3333,-6.3377,-6.3499,-6.332,-6.3319,-6.3353,-6.362,-6.3658,-6.3682,-6.3467,-6.347,-6.3473,-6.362,0,-6.3313,-6.3406,-6.3366,-6.3463,-6.3501,-6.3433,-6.3481,-6.3484,-6.3468,-6.3497,-6.3478,-6.3512,-6.3448,-6.3453,-6.3494,-6.3476,-6.3552,-6.3464,-6.3507,-6.3509,-6.3509,-6.3706,-6.3747,-6.3886,-6.3638,-6.3641,-6.3644,0,-6.3496,-6.3513,-6.3614,-6.3604,-6.3618,-6.3662,-6.368,-6.3709,-6.3711,-6.3696,-6.3708,-6.3665,-6.3717,-6.3641,-6.3712,-6.3654,-6.3669,-6.3663,-6.3667,-6.3669,-6.3584,-6.3713,-6.3929,-6.395,-6.3672,-6.367,-6.3668,0,-6.3646,-6.3695,-6.3761,-6.3767,-6.3757,-6.3789,-6.3786,-6.3784,-6.38,-6.3816,-6.3826,-6.3848,-6.386,-6.3878,-6.3842,-6.3789,-6.3918,-6.3839,-6.3907,-6.3908,-6.3937,-6.3935,-6.4157,-6.3948,-6.3948,-6.3947,-6.3947,0,-6.3814,-6.3878,-6.3829,-6.387,-6.394,-6.3894,-6.3965,-6.3954,-6.3953,-6.399,-6.3933,-6.3969,-6.3919,-6.3951,-6.3923,-6.3986,-6.3992,-6.3981,-6.3973,-6.3986,-6.3988,-6.3995,-6.3984,-6.3953,-6.3951,-6.395,-6.3949,0,-6.3993,-6.3963,-6.4031,-6.4016,-6.4014,-6.4066,-6.4053,-6.409,-6.407,-6.4118,-6.4127,-6.4095,-6.413,-6.4095,-6.4127,-6.4108,-6.4194,-6.4172,-6.4194,-6.4187,-6.4258,-6.4251,-6.4492,-6.4521,-6.4293,-6.4295,-6.4297,0,-6.4102,-6.415,-6.414,-6.4162,-6.4162,-6.4197,-6.4214,-6.4171,-6.4191,-6.4196,-6.4233,-6.4262,-6.4283,-6.4341,-6.4321,-6.4345,-6.4323,-6.4405,-6.4326,-6.4338,-6.4324,-6.4321,-6.4325,-6.4421,-6.4424,-6.4426,-6.4428,0,-6.4298,-6.4281,-6.4307,-6.4329,-6.4351,-6.4366,-6.4377,-6.4397,-6.4353,-6.4378,-6.4412,-6.4429,-6.4462,-6.4491,-6.451,-6.4506,-6.446,-6.4453,-6.447,-6.4484,-6.4495,-6.449,-6.4237,-6.4448,-6.4446,-6.4444,-6.4443,-6.4443,-6.4445,-6.4484,-6.4484,-6.4516,-6.4519,-6.453,-6.4565,-6.4549,-6.4578,-6.4601,-6.4574,-6.4616,-6.4617,-6.4636,-6.4638,-6.4671,-6.4636,-6.466,-6.4667,-6.4673,-6.4684,-6.449,-6.4674,-6.4673,-6.4673,-6.4672,-6.4672,0,-6.4637,-6.4634,-6.4664,-6.468,-6.4706,-6.4661,-6.467,-6.4694,-6.4732,-6.4737,-6.4759,-6.4799,-6.4828,-6.481,-6.4835,-6.4864,-6.4844,-6.4872,-6.4869,-6.4869,-6.4714,-6.4696,-6.4888,-6.4888,-6.4888,-6.4888,-6.4888,-6.4888,-6.474,-6.4805,-6.4788,-6.4854,-6.4849,-6.4891,-6.49,-6.491,-6.4914,-6.4961,-6.4985,-6.4973,-6.4969,-6.4993,-6.5018,-6.5012,-6.5023,-6.5059,-6.5046,-6.4901,-6.488,-6.4859,-6.4843,-6.5062,-6.5062,-6.5198,-6.5199,-6.52]}]]